GW7366 Weather Reports


time (UTC)temp
C
wind
direction
speed
KPH
gust
KPH
rain 1hr
cm
rain 24hr
cm
rain mn
cm
humidity
%
barometer
mb
20260906003755 23 28 8.0 12.9 0.00 0.00 0.00 88 1016.0
20260906003251 23 19 11.3 14.5 0.00 0.00 0.00 87 1016.0
20260906002746 23 5 9.7 12.9 0.00 0.00 0.00 87 1016.0
20260906002246 23 15 9.7 11.3 0.00 0.00 0.00 86 1015.7
20260906001742 24 21 12.9 17.7 0.00 0.00 0.00 86 1015.7
20260906001237 24 26 12.9 16.1 0.00 0.00 0.00 85 1015.7
20260906000732 25 22 16.1 20.9 0.00 0.00 0.00 85 1016.0
20260906000233 25 32 9.7 16.1 0.00 0.00 0.00 85 1015.7
20260905235727 25 13 14.5 19.3 0.00 0.00 0.00 84 1015.7
20260905235221 25 15 12.9 16.1 0.00 0.00 0.00 84 1015.7
20260905234717 25 34 12.9 19.3 0.00 0.00 0.00 84 1015.7
20260905234212 26 24 12.9 17.7 0.00 0.00 0.00 83 1015.3
20260905233707 26 16 12.9 16.1 0.00 0.00 0.00 82 1015.3
20260905233207 26 34 14.5 19.3 0.00 0.00 0.00 81 1015.3
20260905232702 26 31 12.9 17.7 0.00 0.00 0.00 81 1015.3
20260905232157 27 18 11.3 16.1 0.00 0.00 0.00 80 1015.3
20260905231653 27 20 16.1 22.5 0.00 0.00 0.00 79 1015.0
20260905231148 27 14 16.1 19.3 0.00 0.00 0.00 79 1015.0
20260905230644 27 23 16.1 20.9 0.00 0.00 0.00 78 1015.0
20260905230142 27 17 14.5 20.9 0.00 0.00 0.00 77 1014.7
20260905225642 28 37 17.7 27.4 0.00 0.00 0.00 77 1014.7
20260905225142 28 24 11.3 17.7 0.00 0.00 0.00 76 1014.7
20260905224642 28 26 17.7 27.4 0.00 0.00 0.00 75 1014.7
20260905224141 28 24 14.5 20.9 0.00 0.00 0.00 75 1014.7
20260905223638 28 26 12.9 19.3 0.00 0.00 0.00 75 1014.7
20260905223135 29 26 14.5 22.5 0.00 0.00 0.00 74 1014.7
20260905222630 29 23 17.7 24.1 0.00 0.00 0.00 73 1014.7
20260905222125 29 15 16.1 24.1 0.00 0.00 0.00 73 1014.7
20260905221621 29 11 17.7 22.5 0.00 0.00 0.00 73 1014.7
20260905221117 30 10 14.5 20.9 0.00 0.00 0.00 74 1014.7
20260905220613 30 10 17.7 20.9 0.00 0.00 0.00 72 1014.3
20260905220109 30 17 16.1 20.9 0.00 0.00 0.00 72 1014.3
20260905215608 30 11 16.1 22.5 0.00 0.00 0.00 72 1014.0
20260905215104 30 3 12.9 20.9 0.00 0.00 0.00 72 1014.3
20260905214600 30 13 11.3 16.1 0.00 0.00 0.00 73 1014.0
20260905214100 30 358 11.3 17.7 0.00 0.00 0.00 73 1014.3
20260905213601 30 17 16.1 17.7 0.00 0.00 0.00 72 1014.3
20260905213056 31 25 17.7 24.1 0.00 0.00 0.00 72 1014.0
20260905212556 31 4 17.7 24.1 0.00 0.00 0.00 72 1014.0
20260905212056 31 10 17.7 22.5 0.00 0.00 0.00 72 1014.0
20260905211551 31 15 12.9 19.3 0.00 0.00 0.00 72 1014.0
20260905211047 31 22 14.5 17.7 0.00 0.00 0.00 71 1014.0
20260905210543 31 2 11.3 16.1 0.00 0.00 0.00 73 1014.0
20260905210037 31 3 14.5 20.9 0.00 0.00 0.00 72 1013.6
20260905205537 31 15 16.1 27.4 0.00 0.00 0.00 72 1013.6
20260905205036 31 358 14.5 20.9 0.00 0.00 0.00 72 1013.6
20260905204531 31 347 16.1 20.9 0.00 0.00 0.00 72 1013.6
20260905204026 31 8 14.5 16.1 0.00 0.00 0.00 72 1013.6
20260905203526 32 36 16.1 22.5 0.00 0.00 0.00 72 1013.6
20260905203021 32 17 17.7 24.1 0.00 0.00 0.00 72 1013.6
20260905202517 32 4 16.1 24.1 0.00 0.00 0.00 72 1013.6
20260905202012 32 347 11.3 16.1 0.00 0.00 0.00 73 1014.0
20260905201508 32 7 12.9 17.7 0.00 0.00 0.00 73 1014.0
20260905201007 32 329 12.9 17.7 0.00 0.00 0.00 73 1014.0
20260905200503 31 352 12.9 17.7 0.00 0.00 0.00 73 1014.0
20260905200001 32 5 14.5 22.5 0.00 0.00 0.00 71 1014.0
20260905195456 33 346 11.3 19.3 0.00 0.00 0.00 71 1013.6
20260905194952 32 347 9.7 16.1 0.00 0.00 0.00 70 1014.0
20260905194451 32 333 14.5 20.9 0.00 0.00 0.00 70 1013.6
20260905193946 33 330 11.3 14.5 0.00 0.00 0.00 72 1014.0
20260905193446 33 345 8.0 9.7 0.00 0.00 0.00 71 1013.6
20260905192941 33 4 12.9 16.1 0.00 0.00 0.00 71 1014.0
20260905192436 33 327 9.7 14.5 0.00 0.00 0.00 70 1014.0
20260905191932 33 333 9.7 16.1 0.00 0.00 0.00 70 1014.0
20260905191431 33 334 4.8 11.3 0.00 0.00 0.00 71 1014.0
20260905190931 32 6 9.7 11.3 0.00 0.00 0.00 73 1014.0
20260905190429 32 342 8.0 11.3 0.00 0.00 0.00 73 1014.0
20260905185928 31 356 6.4 8.0 0.00 0.00 0.00 75 1014.3
20260905185423 32 358 9.7 12.9 0.00 0.00 0.00 71 1014.7
20260905184921 33 336 9.7 12.9 0.00 0.00 0.00 69 1014.3
20260905184416 33 320 8.0 14.5 0.00 0.00 0.00 70 1014.3
20260905183915 32 308 3.2 6.4 0.00 0.00 0.00 73 1014.3
20260905183410 32 352 6.4 8.0 0.00 0.00 0.00 74 1014.3
20260905182905 32 7 9.7 9.7 0.00 0.00 0.00 74 1014.7
20260905182404 32 1 9.7 14.5 0.00 0.00 0.00 73 1014.3
20260905181901 32 24 6.4 9.7 0.00 0.00 0.00 74 1014.7
20260905181400 32 4 8.0 12.9 0.00 0.00 0.00 74 1014.7
20260905180859 32 334 8.0 9.7 0.00 0.00 0.00 72 1014.7
20260905180354 32 349 6.4 8.0 0.00 0.00 0.00 73 1014.7
20260905175849 32 336 4.8 8.0 0.00 0.00 0.00 73 1014.7
20260905175343 32 13 6.4 8.0 0.00 0.00 0.00 71 1014.7
20260905174838 32 10 6.4 8.0 0.00 0.00 0.00 71 1014.7
20260905174334 32 11 1.6 4.8 0.00 0.00 0.00 73 1014.7
20260905173830 32 356 6.4 6.4 0.00 0.00 0.00 72 1014.7
20260905173326 32 356 6.4 9.7 0.00 0.00 0.00 71 1014.7
20260905172826 32 356 6.4 11.3 0.00 0.00 0.00 71 1014.7
20260905172324 32 356 8.0 11.3 0.00 0.00 0.00 72 1014.7
20260905171820 32 352 8.0 9.7 0.00 0.00 0.00 71 1014.7
20260905171317 32 310 0.0 0.0 0.00 0.00 0.00 71 1015.0
20260905170813 32 310 8.0 9.7 0.00 0.00 0.00 72 1015.0
20260905170308 32 334 4.8 6.4 0.00 0.00 0.00 71 1015.0
20260905165807 32 343 6.4 8.0 0.00 0.00 0.00 70 1015.0
20260905165306 32 306 1.6 3.2 0.00 0.00 0.00 72 1015.0
20260905164803 32 306 3.2 8.0 0.00 0.00 0.00 72 1015.0
20260905164258 32 306 3.2 9.7 0.00 0.00 0.00 72 1015.0
20260905163753 32 306 6.4 12.9 0.00 0.00 0.00 73 1015.0
20260905163249 32 319 8.0 11.3 0.00 0.00 0.00 73 1015.0
20260905162745 31 342 6.4 9.7 0.00 0.00 0.00 75 1015.0
20260905162245 31 342 6.4 8.0 0.00 0.00 0.00 74 1015.3
20260905161739 31 340 6.4 11.3 0.00 0.00 0.00 74 1015.3
20260905161238 31 342 6.4 11.3 0.00 0.00 0.00 74 1015.3
20260905160737 32 324 6.4 9.7 0.00 0.00 0.00 72 1015.3
20260905160237 32 345 8.0 11.3 0.00 0.00 0.00 71 1015.0
20260905155732 32 330 3.2 11.3 0.00 0.00 0.00 73 1015.0
20260905155231 31 332 4.8 8.0 0.00 0.00 0.00 72 1015.0
20260905154725 31 330 4.8 8.0 0.00 0.00 0.00 72 1015.0
20260905154221 31 333 1.6 4.8 0.00 0.00 0.00 74 1015.0
20260905153716 31 334 4.8 9.7 0.00 0.00 0.00 74 1015.0
20260905153212 31 342 8.0 12.9 0.00 0.00 0.00 76 1015.0
20260905152707 30 0 9.7 14.5 0.00 0.00 0.00 76 1015.0
20260905152201 30 1 8.0 11.3 0.00 0.00 0.00 77 1015.0
20260905151655 30 358 9.7 16.1 0.00 0.00 0.00 76 1015.0
20260905151151 30 333 6.4 9.7 0.00 0.00 0.00 77 1015.0
20260905150646 30 333 6.4 8.0 0.00 0.00 0.00 77 1015.0
20260905150145 30 333 6.4 9.7 0.00 0.00 0.00 76 1015.0
20260905145643 30 330 6.4 8.0 0.00 0.00 0.00 79 1015.0
20260905145143 29 330 4.8 8.0 0.00 0.00 0.00 79 1015.0
20260905144637 29 330 6.4 9.7 0.00 0.00 0.00 80 1015.0
20260905144136 28 330 6.4 9.7 0.00 0.00 0.00 81 1015.0
20260905143632 28 330 6.4 8.0 0.00 0.00 0.00 81 1014.7
20260905143131 28 330 8.0 9.7 0.00 0.00 0.00 82 1015.0
20260905142630 28 0 6.4 9.7 0.00 0.00 0.00 84 1014.7
20260905142130 27 0 3.2 6.4 0.00 0.00 0.00 85 1015.0
20260905141630 27 0 3.2 4.8 0.00 0.00 0.00 85 1015.3
20260905141127 28 0 4.8 8.0 0.00 0.00 0.00 84 1015.7
20260905140622 28 0 3.2 6.4 0.00 0.00 0.00 84 1015.3
20260905140121 27 1 6.4 6.4 0.00 0.00 0.00 85 1015.3
20260905135616 27 4 1.6 3.2 0.00 0.00 0.00 85 1015.0
20260905135111 27 4 3.2 4.8 0.00 0.00 0.00 85 1015.0
20260905134606 27 294 3.2 4.8 0.00 0.00 0.00 86 1015.0
20260905134104 27 294 0.0 3.2 0.00 0.00 0.00 86 1015.0
20260905133600 27 294 0.0 3.2 0.00 0.00 0.00 87 1015.0
20260905133100 26 294 0.0 0.0 0.00 0.00 0.00 87 1015.0
20260905132600 27 294 0.0 0.0 0.00 0.00 0.00 87 1015.0
20260905132054 26 294 0.0 0.0 0.00 0.00 0.00 86 1015.0
20260905131550 26 294 0.0 0.0 0.00 0.00 0.00 87 1015.0
20260905131045 26 294 0.0 0.0 0.00 0.00 0.00 90 1015.0
20260905130544 26 294 0.0 0.0 0.00 0.00 0.00 92 1015.0
20260905130040 25 294 0.0 0.0 0.00 0.00 0.00 93 1015.0
20260905125539 25 294 0.0 0.0 0.00 0.00 0.00 94 1015.0
20260905125035 25 294 0.0 0.0 0.00 0.00 0.00 95 1015.0
20260905124531 25 294 0.0 0.0 0.00 0.00 0.00 95 1015.0
20260905124027 25 294 0.0 0.0 0.00 0.00 0.00 96 1015.0
20260905123522 24 294 0.0 0.0 0.00 0.00 0.00 96 1015.0
20260905123020 24 294 0.0 0.0 0.00 0.00 0.00 96 1015.0
20260905122519 24 294 0.0 0.0 0.00 0.00 0.00 97 1015.0
20260905122014 24 294 0.0 0.0 0.00 0.00 0.00 97 1015.0
20260905121509 23 294 0.0 0.0 0.00 0.00 0.00 97 1015.0
20260905121008 23 294 0.0 0.0 0.00 0.00 0.00 97 1015.0
20260905120502 23 294 0.0 0.0 0.00 0.00 0.00 97 1014.7
20260905115958 23 294 0.0 0.0 0.00 0.00 0.00 97 1015.0
20260905115457 23 294 0.0 0.0 0.00 0.00 0.00 97 1014.7
20260905114952 23 294 0.0 0.0 0.00 0.00 0.00 96 1014.7
20260905114452 23 294 0.0 0.0 0.00 0.00 0.00 96 1014.7
20260905113950 23 294 0.0 0.0 0.00 0.00 0.00 96 1014.7
20260905113446 23 294 0.0 0.0 0.00 0.00 0.00 96 1014.7
20260905112941 23 294 0.0 0.0 0.00 0.00 0.00 96 1014.7
20260905112436 23 294 0.0 0.0 0.00 0.00 0.00 96 1014.7
20260905111932 23 294 0.0 0.0 0.00 0.00 0.00 97 1014.7
20260905111432 23 294 0.0 0.0 0.00 0.00 0.00 97 1014.7
20260905110927 23 294 0.0 0.0 0.00 0.00 0.00 97 1014.7
20260905110425 23 294 0.0 0.0 0.00 0.00 0.00 97 1014.7
20260905105920 23 294 0.0 0.0 0.00 0.00 0.00 97 1014.7
20260905105420 23 294 0.0 0.0 0.00 0.00 0.00 97 1014.7
20260905104920 23 294 0.0 0.0 0.00 0.00 0.00 97 1014.7
20260905104416 23 294 0.0 0.0 0.00 0.00 0.00 97 1014.7
20260905103916 23 294 0.0 0.0 0.00 0.00 0.00 97 1014.7
20260905103411 23 294 0.0 0.0 0.00 0.00 0.00 97 1014.7
20260905102907 23 294 0.0 0.0 0.00 0.00 0.00 97 1014.7
20260905102403 23 294 0.0 0.0 0.00 0.00 0.00 97 1014.7
20260905101858 23 294 0.0 0.0 0.00 0.00 0.00 97 1014.7
20260905101356 23 294 0.0 0.0 0.00 0.00 0.00 97 1014.7
20260905100851 22 294 0.0 0.0 0.00 0.00 0.00 96 1014.7
20260905100347 23 294 0.0 0.0 0.00 0.00 0.00 96 1014.7
20260905095846 23 294 0.0 0.0 0.00 0.00 0.00 96 1014.7
20260905095340 23 294 0.0 0.0 0.00 0.00 0.00 96 1014.7
20260905094835 23 294 0.0 0.0 0.00 0.00 0.00 96 1014.7
20260905094331 23 294 0.0 0.0 0.00 0.00 0.00 96 1014.7
20260905093829 23 294 0.0 0.0 0.00 0.00 0.00 96 1014.7
20260905093325 23 294 0.0 0.0 0.00 0.00 0.00 96 1014.7
20260905092821 23 294 0.0 0.0 0.00 0.00 0.00 96 1014.7
20260905092321 23 294 0.0 0.0 0.00 0.00 0.00 96 1014.7
20260905091816 23 294 0.0 0.0 0.00 0.00 0.00 96 1014.7
20260905091317 23 294 0.0 0.0 0.00 0.00 0.00 95 1014.7
20260905090815 23 294 0.0 0.0 0.00 0.00 0.00 95 1014.7
20260905090311 23 294 0.0 0.0 0.00 0.00 0.00 95 1014.7
20260905085810 23 294 0.0 0.0 0.00 0.00 0.00 95 1014.7
20260905085310 23 294 0.0 0.0 0.00 0.00 0.00 95 1014.7
20260905084806 23 294 0.0 0.0 0.00 0.00 0.00 95 1014.7
20260905084305 23 294 0.0 0.0 0.00 0.00 0.00 95 1014.7
20260905083800 23 294 0.0 0.0 0.00 0.00 0.00 94 1014.7
20260905083256 23 294 0.0 0.0 0.00 0.00 0.00 94 1014.7
20260905082752 24 294 0.0 0.0 0.00 0.00 0.00 94 1014.7
20260905082248 24 294 0.0 0.0 0.00 0.00 0.00 93 1014.7
20260905081748 24 294 0.0 0.0 0.00 0.00 0.00 93 1014.3
20260905081243 24 294 0.0 0.0 0.00 0.00 0.00 93 1014.7
20260905080742 24 294 0.0 0.0 0.00 0.00 0.00 93 1014.3
20260905080242 24 294 0.0 0.0 0.00 0.00 0.00 93 1014.3
20260905075741 25 294 0.0 0.0 0.00 0.00 0.00 93 1014.3
20260905075240 25 294 0.0 0.0 0.00 0.00 0.00 92 1014.3
20260905074739 25 294 0.0 0.0 0.00 0.00 0.00 92 1014.3
20260905074236 25 294 0.0 1.6 0.00 0.00 0.00 92 1014.3
20260905073731 25 294 0.0 0.0 0.00 0.00 0.00 92 1014.3
20260905073226 25 294 0.0 0.0 0.00 0.00 0.00 92 1014.3
20260905072725 25 294 0.0 1.6 0.00 0.00 0.00 92 1014.3
20260905072221 25 294 0.0 1.6 0.00 0.00 0.00 92 1014.3
20260905071717 25 294 0.0 0.0 0.00 0.00 0.00 92 1014.3
20260905071214 25 294 0.0 0.0 0.00 0.00 0.00 92 1014.3
20260905070708 25 294 0.0 0.0 0.00 0.00 0.00 92 1014.7
20260905070204 25 294 0.0 0.0 0.00 0.00 0.00 93 1014.7
20260905065702 25 294 0.0 0.0 0.00 0.00 0.00 94 1014.7
20260905065157 25 294 0.0 0.0 0.00 0.00 0.00 94 1014.7
20260905064652 25 294 0.0 0.0 0.00 0.00 0.00 94 1014.7
20260905064148 25 294 0.0 0.0 0.00 0.00 0.00 94 1014.7
20260905063646 25 294 0.0 0.0 0.00 0.00 0.00 95 1014.7
20260905063143 25 294 0.0 0.0 0.00 0.00 0.00 96 1014.7
20260905062638 24 294 0.0 0.0 0.00 0.00 0.00 97 1014.7
20260905062137 24 294 0.0 0.0 0.00 0.00 0.00 98 1014.7
20260905061632 23 294 0.0 0.0 0.00 0.00 0.00 98 1014.7
20260905061132 23 294 0.0 0.0 0.00 0.00 0.00 97 1014.7
20260905060627 24 294 0.0 0.0 0.00 0.00 0.00 98 1015.0
20260905060124 23 294 0.0 0.0 0.00 0.00 0.00 97 1015.0
20260905055622 23 294 0.0 0.0 0.00 0.00 0.00 97 1015.0
20260905055117 24 294 0.0 0.0 0.00 0.00 0.00 97 1015.0
20260905054613 24 294 0.0 0.0 0.00 0.00 0.00 97 1015.0
20260905054109 24 294 0.0 0.0 0.00 0.00 0.00 97 1015.0
20260905053608 24 294 0.0 0.0 0.00 0.00 0.00 97 1015.0
20260905053103 24 294 0.0 0.0 0.00 0.00 0.00 97 1015.0
20260905052602 24 294 0.0 0.0 0.00 0.00 0.00 97 1015.0
20260905052052 24 294 0.0 0.0 0.00 0.00 0.00 97 1015.0
20260905051548 23 294 0.0 0.0 0.00 0.00 0.00 96 1015.3
20260905051044 23 294 0.0 0.0 0.00 0.00 0.00 96 1015.3
20260905050539 23 294 0.0 0.0 0.00 0.00 0.00 96 1015.3
20260905050037 23 294 0.0 0.0 0.00 0.00 0.00 96 1015.3
20260905045531 24 294 0.0 0.0 0.00 0.00 0.00 96 1015.3
20260905045026 24 294 0.0 0.0 0.00 0.00 0.00 96 1015.3
20260905044521 24 294 0.0 0.0 0.00 0.00 0.00 96 1015.3
20260905044020 24 294 0.0 0.0 0.00 0.00 0.00 96 1015.3
20260905043520 24 294 0.0 0.0 0.00 0.00 0.00 96 1015.3
20260905043015 24 294 0.0 0.0 0.00 0.00 0.00 96 1015.3
20260905042514 24 294 0.0 0.0 0.00 0.00 0.00 95 1015.3
20260905042009 24 294 0.0 0.0 0.00 0.00 0.00 95 1015.3
20260905041505 24 294 0.0 0.0 0.00 0.00 0.00 95 1015.3
20260905041000 25 294 0.0 0.0 0.00 0.00 0.00 95 1015.3
20260905040459 25 294 0.0 0.0 0.00 0.00 0.00 95 1015.3
20260905035958 25 294 0.0 0.0 0.00 0.00 0.00 95 1015.3
20260905035454 25 294 0.0 0.0 0.00 0.00 0.00 95 1015.3
20260905034951 25 294 0.0 0.0 0.00 0.00 0.00 95 1015.3
20260905034446 25 294 0.0 0.0 0.00 0.00 0.00 95 1015.3
20260905033945 25 294 0.0 0.0 0.00 0.00 0.00 95 1015.3
20260905033445 25 294 0.0 0.0 0.00 0.00 0.00 94 1015.3
20260905032940 25 294 0.0 0.0 0.00 0.00 0.00 92 1015.3
20260905032435 25 294 0.0 0.0 0.00 0.00 0.00 92 1015.3
20260905031931 26 294 0.0 0.0 0.00 0.00 0.00 92 1015.3
20260905031426 26 294 0.0 0.0 0.00 0.00 0.00 91 1015.3
20260905030922 26 294 0.0 0.0 0.00 0.00 0.00 91 1015.3
20260905030417 26 294 0.0 0.0 0.00 0.00 0.00 92 1015.3
20260905025916 26 294 0.0 0.0 0.00 0.00 0.00 92 1015.3
20260905025411 26 294 0.0 0.0 0.00 0.00 0.00 92 1015.3
20260905024908 26 294 0.0 0.0 0.00 0.00 0.00 92 1015.0
20260905024408 26 294 0.0 0.0 0.00 0.00 0.00 92 1015.0
20260905023903 26 294 0.0 0.0 0.00 0.00 0.00 92 1015.0
20260905023353 26 294 0.0 0.0 0.00 0.00 0.00 92 1015.0
20260905022851 26 294 0.0 0.0 0.00 0.00 0.00 92 1015.3
20260905022342 26 294 0.0 0.0 0.00 0.00 0.00 92 1015.0
20260905021841 26 294 0.0 0.0 0.00 0.00 0.00 92 1015.0
20260905021337 26 294 0.0 0.0 0.00 0.00 0.00 92 1015.0
20260905020832 26 294 0.0 0.0 0.00 0.00 0.00 92 1015.0
20260905020326 26 294 0.0 0.0 0.00 0.00 0.00 92 1015.0
20260905015825 26 294 0.0 0.0 0.00 0.00 0.00 91 1015.0
20260905015319 26 294 0.0 0.0 0.00 0.00 0.00 91 1015.0
20260905014819 26 294 0.0 0.0 0.00 0.00 0.00 91 1015.0
20260905014314 26 294 0.0 0.0 0.00 0.00 0.00 91 1014.7
20260905013809 26 294 0.0 0.0 0.00 0.00 0.00 91 1014.7
20260905013306 26 294 0.0 0.0 0.00 0.00 0.00 91 1014.7
20260905012800 26 294 0.0 0.0 0.00 0.00 0.00 91 1014.7
20260905012256 26 294 0.0 0.0 0.00 0.00 0.00 91 1014.7
20260905011753 27 294 0.0 0.0 0.00 0.00 0.00 91 1014.7
20260905011248 27 294 0.0 0.0 0.00 0.00 0.00 91 1014.7
20260905010738 27 294 0.0 0.0 0.00 0.00 0.00 91 1014.7
20260905010233 27 294 0.0 0.0 0.00 0.00 0.00 89 1014.7
20260905005730 27 294 0.0 0.0 0.00 0.00 0.00 88 1014.7
20260905005225 27 294 0.0 0.0 0.00 0.00 0.00 88 1014.3
20260905004724 27 294 0.0 0.0 0.00 0.00 0.00 87 1014.3
20260905004220 27 294 0.0 0.0 0.00 0.00 0.00 87 1014.3